Volver al catálogo

LDPE-3A

ActivoCienciaGEO
NORAD 55264·PAYLOAD·🇺🇸 United States

Lanzado Jan 15, 2023 desde Cape Canaveral Space Force Station

Loading…

TLE

ActualizadoSource: Space-Track

Época: Sep 14, 2026, 12:29 UTC

1 55264U 23008B   26257.52058617  .00000047  00000-0  00000-0 0  9992
2 55264   2.5748  80.4797 0002211 103.9932 245.9137  0.99144168 12699

Sigue LDPE-3A en tiempo real con AllMySat

Download on the App Store